Location: Newark
(25.0000°N, 73.5000°E)
Time: 05:22:37
(UTC+00:00)

Altair - Pass Details

Date: 07 March 2021
Orbit: 1501 x 1683 km, 47.2° (Epoch: 12 April)

Event Time Altitude Azimuth Distance (km) Brightness Sun altitude
Rises 21:40:20 0° 296° (WNW) 4,801 - -50.2°
Reaches altitude 10° 21:44:09 10° 284° (WNW) 3,843 - -49.4°
Maximum altitude 21:51:32 25° 234° (SW) 2,897 - -47.8°
Drops below altitude 10° 21:59:07 10° 184° (S) 3,919 - -46.2°
Sets 22:03:07 0° 172° (S) 4,916 - -45.4°
